Lapse_Rate
2.3 2.2 2.2 2.3 2.2 1.9 1.8 1.4 1.3 1.3 1.4 1.5 1.5 1.5 1.8 1.9 1.7 4.0 6.0 7.0 6.0 4.7 4.5 8.6 7.9 8.3 8.0 7.4 7.5 7.8 6.5 6.5 6.5 6.5 6.5 6.3 6.5 6.3 6.5 6.2 7.1 6.9 6.4 6.2 4.7
2.1 1.8 2.1 2.0 1.8 1.7 1.4 1.1 1.1 1.3 1.2 1.2 1.4 1.8 2.2 1.8 4.0 6.9 6.5 4.8 4.4 4.4 6.6 8.0 7.6 7.7 6.4 6.7 6.4 6.3 6.5 6.5 6.5 6.5 6.5 6.4 6.4 6.0 6.4 6.1 6.2 6.3 3.6 5.5 4.5
2.2 1.6 1.1 1.2 1.2 1.1 0.9 0.9 0.9 1.0 1.1 1.3 1.5 1.9 1.8 2.0 5.8 7.5 4.4 4.8 4.4 4.4 7.2 8.3 8.0 7.5 6.2 6.5 6.3 5.9 6.5 6.5 6.4 6.1 6.1 6.3 6.2 6.5 6.3 6.5 5.3 5.0 3.9 3.9 4.0
1.9 1.4 0.9 0.5 0.5 0.5 0.5 0.6 0.8 0.9 1.2 1.3 1.7 1.8 1.8 4.9 6.5 6.0 4.0 4.4 4.4 5.8 7.4 7.9 7.6 6.7 6.4 6.5 5.9 6.5 6.0 6.0 6.2 6.1 6.7 6.5 6.5 6.2 5.3 5.5 5.6 6.2 5.6 3.0 3.4
1.2 0.8 0.6 0.3 -0.0 0.1 0.1 0.3 0.5 1.0 1.0 1.2 1.7 1.7 4.2 7.0 7.4 4.3 3.8 4.2 5.2 5.9 6.8 7.5 6.8 6.2 6.5 6.4 6.2 6.5 6.5 6.1 6.3 6.2 6.1 6.3 5.9 6.2 5.3 5.4 5.7 5.8 6.1 3.4 3.2
1.1 0.5 0.1 -0.1 -0.3 -0.3 0.0 0.1 0.4 0.6 0.7 1.2 1.7 1.4 5.2 6.6 7.4 5.4 5.6 5.0 6.9 6.4 7.2 7.5 7.2 6.9 6.2 6.2 6.4 5.8 6.0 5.9 5.9 5.7 6.3 6.5 6.3 6.2 5.9 5.3 5.9 5.8 4.1 4.4 4.2
0.7 0.1 -0.3 -0.4 -0.6 -0.1 0.1 0.3 0.4 0.4 0.8 1.3 1.8 4.8 6.9 6.8 8.8 6.9 6.3 6.4 7.0 7.2 7.4 7.9 7.6 7.1 6.5 6.5 6.0 6.2 6.5 6.5 6.3 5.7 6.5 6.3 6.5 6.5 4.5 5.8 6.0 6.0 5.2 4.1 4.6
0.4 -0.0 -0.5 -0.7 -0.6 -0.6 -0.5 -0.1 0.1 0.2 0.7 1.1 1.8 6.0 6.9 6.7 8.1 7.4 7.3 7.1 7.4 7.7 7.5 7.0 7.2 7.0 6.8 6.4 6.4 6.5 6.5 6.5 6.5 6.5 6.1 6.1 6.5 6.5 3.8 5.1 4.8 5.1 5.2 4.4 3.8
0.2 -0.3 -0.7 -1.1 -1.3 -1.0 -0.9 -0.1 -0.1 0.4 1.1 1.8 4.3 6.3 6.9 5.2 7.1 7.3 8.1 7.6 7.8 7.7 7.4 7.6 7.2 6.8 6.5 6.5 6.5 6.5 6.5 6.5 6.5 6.4 6.5 6.5 6.5 6.5 6.0 6.2 5.1 4.7 4.5 4.1 3.8
-0.3 -0.6 -1.0 -1.4 -1.7 -1.1 -0.7 0.3 0.2 0.9 2.7 6.0 7.7 7.2 7.6 7.2 7.1 8.4 9.0 8.3 7.8 7.4 6.9 7.0 6.0 6.5 6.5 6.5 6.5 6.5 6.5 6.5 6.5 6.5 6.5 6.5 6.5 6.5 5.5 5.6 4.6 4.0 3.7 3.4 3.2
-0.5 -0.9 -1.1 -1.3 -1.3 -0.5 0.9 3.3 4.8 5.3 7.8 6.4 5.9 6.5 7.5 6.2 7.1 7.5 7.8 7.9 7.9 7.1 6.5 6.2 6.5 6.5 6.5 6.5 6.5 6.5 6.5 6.5 6.5 6.5 6.5 6.5 6.5 6.5 5.8 4.6 5.1 3.3 3.2 3.1 3.0
-0.7 -1.1 -1.1 -1.2 -1.3 -0.3 0.9 7.1 4.6 4.7 6.5 6.2 6.1 7.3 7.3 7.3 7.1 7.6 8.0 6.6 6.5 6.5 6.5 6.5 6.5 6.5 6.5 6.5 6.5 6.5 6.5 6.5 6.5 6.5 6.5 6.5 6.5 6.5 6.5 6.4 5.4 4.6 3.0 2.5 3.3
-0.5 -0.8 -1.1 -0.9 -1.1 2.5 4.9 4.6 5.1 6.1 6.7 6.8 7.3 7.4 7.3 7.2 6.9 6.5 6.6 6.9 6.5 6.5 6.5 6.5 6.5 6.5 6.5 6.5 6.5 6.5 6.5 6.5 6.5 6.5 6.5 6.5 6.5 6.5 6.5 6.0 5.8 4.6 5.0 5.0 2.6
-0.3 -0.5 -0.7 -1.3 3.6 5.8 5.6 4.7 5.0 6.1 6.5 6.5 6.7 7.3 7.4 7.1 6.5 7.2 6.3 6.8 6.5 6.5 6.5 6.5 6.5 6.5 6.5 6.5 6.5 6.5 6.5 6.5 6.5 6.5 6.5 6.5 6.5 6.5 6.5 6.5 6.5 5.0 3.8 4.2 4.7
-0.0 -0.1 -0.4 -0.6 3.3 6.6 4.7 4.6 4.7 5.3 6.5 6.5 6.7 7.0 7.7 6.7 6.4 6.6 7.1 6.9 6.5 6.5 6.5 6.5 6.5 6.5 6.5 6.5 6.5 6.5 6.5 6.5 6.5 6.5 6.5 6.5 6.5 6.5 6.5 6.5 6.5 6.5 4.2 3.7 3.8
-0.0 0.2 -0.0 4.4 4.8 5.2 4.9 4.5 4.5 6.5 6.5 6.5 6.7 6.5 6.5 6.6 6.7 7.1 6.8 7.1 7.2 6.5 6.5 6.5 6.1 6.5 6.5 6.5 6.5 6.5 6.5 6.5 6.5 6.5 6.5 6.5 6.5 6.5 6.5 6.5 6.5 6.6 4.4 4.1 4.8
-0.5 0.1 0.3 4.2 6.3 5.4 4.7 5.0 6.5 6.5 6.5 6.5 6.5 6.5 6.5 6.5 6.5 6.5 6.5 6.5 6.5 6.5 6.5 6.5 6.5 6.5 6.4 6.5 6.5 6.5 6.5 6.5 6.5 6.5 6.5 6.5 6.5 6.5 6.5 6.5 6.5 6.5 4.8 4.4 5.1
-0.0 0.0 3.6 5.9 5.6 5.2 5.4 6.5 6.5 6.5 6.5 6.5 6.5 6.5 6.5 6.5 6.5 6.5 6.5 6.5 6.5 6.5 6.5 6.5 6.5 6.5 6.5 6.5 6.5 6.5 6.5 6.5 6.5 6.5 6.5 6.5 6.5 6.5 6.5 6.3 4.5 3.9 3.9 4.3 4.9
0.5 5.0 8.4 6.2 6.0 5.3 6.5 6.5 6.5 6.5 6.5 6.5 6.5 6.5 6.5 6.5 6.5 6.5 6.5 6.5 6.5 6.5 6.5 6.5 6.5 6.5 6.5 6.5 6.5 6.5 6.5 6.5 6.5 6.5 6.5 6.5 6.5 6.5 6.5 6.5 6.5 6.0 5.0 5.1 5.0
2.0 6.6 6.6 7.6 6.6 5.6 6.5 6.5 6.5 6.5 6.5 6.5 6.5 6.5 6.5 6.5 6.5 6.5 6.5 6.5 6.5 6.5 6.5 6.5 6.5 6.5 6.5 6.5 6.5 6.5 6.5 6.5 6.5 6.5 6.5 6.5 6.5 6.5 6.5 6.5 6.5 6.5 6.0 5.2 4.3
3.3 6.7 7.3 7.3 5.9 6.5 6.5 6.5 6.5 7.0 6.7 6.5 6.5 6.5 6.5 6.5 6.5 6.5 6.5 6.5 6.5 6.5 6.5 6.5 6.5 6.5 6.5 6.5 6.5 6.5 6.5 6.5 6.5 6.5 6.5 6.5 6.5 6.5 6.5 6.5 6.5 6.5 7.0 5.4 5.0
4.7 6.5 7.3 7.0 6.4 6.0 6.5 6.5 5.9 6.6 7.0 6.5 6.5 6.5 6.5 6.5 6.5 6.5 6.5 6.5 6.9 6.5 6.5 6.5 6.5 6.5 6.5 6.5 6.5 6.5 6.5 6.5 6.5 6.5 6.5 6.5 6.5 6.5 6.5 6.5 6.8 6.8 6.8 5.9 6.2
6.9 6.9 7.0 6.3 6.5 6.5 6.5 6.5 6.6 6.5 6.5 6.5 6.5 6.5 6.5 6.5 6.5 6.5 6.5 6.7 7.0 6.5 6.5 6.5 6.5 6.5 6.5 6.5 6.5 6.5 6.5 6.5 6.5 6.5 6.5 6.5 6.5 6.5 6.6 6.6 7.1 7.0 7.3 7.1 7.0
6.7 6.5 6.1 6.5 6.6 6.4 6.5 6.5 6.5 6.5 6.6 6.7 6.5 6.6 6.5 6.5 6.5 6.5 6.5 6.5 6.8 6.6 6.9 6.7 6.5 6.5 6.5 6.5 6.5 6.5 6.5 6.5 6.5 6.5 6.5 6.5 6.5 6.5 6.5 6.5 6.7 7.2 7.2 6.8 6.2
5.6 6.7 7.2 6.5 6.4 6.5 6.4 6.5 6.5 6.5 6.7 6.7 6.5 6.5 6.5 6.5 6.5 6.5 6.5 6.5 6.5 6.8 6.5 6.5 6.5 6.5 6.5 6.5 6.5 6.5 6.5 6.5 6.5 6.5 6.5 6.5 6.5 6.5 6.5 6.5 6.8 7.2 7.4 7.4 7.2
6.9 6.8 6.5 6.5 6.7 6.4 6.5 6.5 6.5 6.5 6.5 6.5 6.5 6.5 6.5 6.5 6.5 6.5 6.5 6.5 6.5 6.5 6.5 6.5 6.5 6.5 6.5 6.5 6.5 6.5 6.5 6.5 6.5 6.5 6.5 6.5 6.5 6.5 6.8 7.0 6.9 7.1 7.2 7.0 7.0
7.9 8.3 7.3 6.6 6.4 6.5 6.5 6.5 6.5 6.6 6.8 6.9 6.6 6.5 6.5 6.5 6.8 6.8 6.8 6.6 6.5 6.5 6.5 6.5 6.5 6.5 6.5 6.5 6.5 6.5 6.5 6.5 6.5 6.5 6.5 6.5 6.5 6.6 6.5 6.7 6.8 7.0 7.1 7.0 6.8
Wind_Speed
10 8 9 8 8 8 8 7 7 8 10 9 9 9 9 10 13 4 8 2 8 9 2 6 6 7 7 4 2 2 3 5 7 4 3 5 1 5 3 5 1 4 4 7 12
14 12 11 9 8 8 7 7 7 8 8 8 8 9 8 9 8 12 6 14 14 10 5 8 8 7 5 6 4 3 3 5 2 4 5 4 4 5 4 6 5 5 7 11 10
17 15 12 12 10 9 8 7 7 7 7 7 8 9 9 9 5 2 12 14 11 9 7 6 5 7 7 5 6 6 4 3 4 6 7 5 5 5 4 7 10 11 12 13 10
19 18 16 13 12 9 8 8 7 6 6 7 7 8 10 4 3 5 10 11 10 8 6 5 5 4 6 8 10 5 9 9 6 4 2 4 4 6 8 9 4 3 2 17 15
21 19 17 15 12 10 9 8 8 6 6 6 6 7 5 5 5 11 12 10 7 5 8 7 7 8 7 4 4 8 8 9 5 3 5 8 9 6 11 10 9 8 5 13 14
22 22 20 17 13 10 9 8 8 7 7 6 4 4 3 6 6 13 8 6 7 7 8 7 5 4 7 7 6 6 7 10 7 8 5 5 6 4 6 9 11 10 10 9 13
24 23 22 19 15 12 8 7 7 7 6 5 3 3 6 9 3 10 8 6 6 5 7 7 4 2 5 6 7 5 8 9 12 9 5 5 8 13 18 6 6 8 9 11 10
26 25 23 21 18 14 10 7 6 5 5 4 2 4 6 2 2 6 8 5 4 3 3 6 1 5 4 6 4 4 6 4 4 12 5 7 8 8 12 11 11 10 8 10 13
28 27 26 23 20 15 12 7 5 4 4 3 3 4 5 1 4 8 8 6 6 4 2 2 2 3 5 3 5 7 6 8 4 6 6 7 7 4 3 3 8 9 10 10 9
30 29 27 26 22 15 10 2 4 5 3 5 5 3 5 3 4 5 3 5 4 7 4 4 4 3 4 5 6 5 5 8 7 9 8 8 15 13 11 7 10 10 10 10 11
31 30 29 27 23 16 5 2 2 2 5 8 8 5 5 4 3 4 5 6 3 4 5 5 4 11 12 13 15 11 11 10 12 5 7 11 12 15 10 11 13 12 11 11 11
31 31 31 29 25 17 3 3 3 1 8 15 18 10 3 4 4 8 7 7 5 8 9 3 11 14 12 11 7 8 10 11 10 4 5 8 12 14 14 14 15 13 10 11 8
31 31 32 31 23 6 5 3 2 3 5 1 2 4 5 6 5 12 9 6 6 8 10 12 6 3 8 11 8 10 10 11 11 4 6 5 7 10 13 12 16 12 3 4 9
32 31 30 37 4 2 3 1 2 2 4 4 3 3 3 4 5 2 9 4 6 7 10 12 15 19 11 8 8 11 6 6 9 4 4 4 8 8 11 16 7 9 8 7 6
33 32 30 19 6 3 3 2 2 2 5 4 4 1 2 4 4 1 4 2 7 7 3 6 5 4 6 14 8 8 2 2 3 4 6 5 5 6 5 7 10 9 8 8 8
34 32 26 1 3 3 5 4 2 2 7 3 4 4 4 6 4 4 4 2 1 6 10 12 2 3 5 2 1 5 2 2 1 1 5 10 10 4 7 9 3 8 9 9 7
37 32 16 6 3 7 5 3 2 4 1 4 1 3 5 4 6 8 6 6 6 3 7 8 20 6 4 3 2 3 3 3 2 1 8 7 9 13 3 2 6 8 8 9 7
37 30 2 3 9 7 3 3 5 5 5 3 1 4 4 3 6 9 5 9 12 8 5 4 6 14 8 10 7 7 8 5 6 5 4 5 6 6 8 7 9 8 10 9 7
31 3 2 4 8 3 3 4 3 6 5 9 10 7 6 7 4 5 10 10 7 15 8 5 7 5 5 3 6 4 6 7 6 10 4 5 10 10 4 3 4 6 7 7 7
5 3 3 8 6 2 2 4 5 11 10 8 6 6 12 12 4 6 5 3 1 1 6 3 12 4 4 4 3 1 3 2 3 4 6 6 5 4 15 21 15 12 3 6 8
2 0 3 10 2 3 2 4 5 13 15 9 13 14 17 17 17 17 13 7 17 11 6 5 4 5 6 6 7 3 3 5 3 6 7 8 3 11 18 20 20 21 22 9 9
3 2 4 5 2 1 3 7 9 11 13 7 6 8 6 11 7 9 12 10 19 13 8 9 5 7 12 9 10 12 13 15 11 13 5 13 7 12 18 20 22 23 24 14 18
3 2 3 4 3 4 7 6 3 6 6 8 7 7 8 6 6 8 7 9 17 15 11 12 5 8 11 8 16 13 4 13 14 8 16 12 8 16 21 23 24 24 25 20 18
3 3 4 4 5 4 5 5 7 6 4 3 3 2 4 4 5 6 11 8 15 10 6 6 4 6 5 4 7 4 12 12 7 4 8 6 9 26 25 23 20 21 19 18 18
5 3 2 4 5 6 6 5 8 8 9 7 1 4 7 5 16 10 14 12 10 17 4 5 5 8 16 16 15 10 11 12 6 6 4 8 9 15 16 14 15 16 17 19 18
3 3 5 3 5 7 6 9 8 11 7 7 8 13 13 11 13 11 14 7 9 9 9 5 5 14 16 15 14 14 15 7 12 9 6 8 4 15 14 10 14 14 15 16 15
3 2 2 4 5 4 5 10 10 11 7 8 14 14 13 12 13 15 15 17 18 16 16 14 4 3 7 10 12 3 13 10 12 14 6 8 7 14 14 11 11 12 12 12 12
Wind_Direction
358 342 331 314 302 296 290 295 294 285 277 284 288 294 297 307 303 224 244 120 141 138 153 169 203 207 240 223 256 281 285 270 281 355 54 110 228 136 64 323 99 131 22 104 127
6 354 341 326 315 301 299 299 294 285 285 286 291 291 303 322 268 253 159 123 134 150 196 188 194 187 209 212 186 213 234 258 61 3 342 35 195 266 170 220 253 179 92 115 128
8 2 351 339 326 313 307 300 292 283 280 283 288 292 314 315 269 208 132 134 148 171 270 264 256 183 227 209 203 205 230 277 334 32 357 291 285 211 267 251 234 206 175 157 161
5 3 357 345 332 325 310 297 280 272 274 280 288 307 313 249 306 106 139 137 159 199 231 219 236 195 227 215 212 249 245 253 291 102 277 250 285 278 235 226 301 21 35 164 174
4 360 355 350 339 325 310 291 276 269 265 273 292 321 303 231 257 141 136 146 167 207 215 215 222 215 258 241 244 216 253 268 286 252 219 268 263 246 261 255 242 193 167 174 183
359 358 356 350 344 332 315 294 279 271 264 264 284 319 244 254 107 147 144 156 184 207 214 231 234 313 298 282 282 337 314 295 286 218 216 234 259 248 242 225 236 229 186 194 190
358 357 355 353 345 335 327 304 280 262 256 266 290 280 260 244 114 143 151 190 193 226 245 224 312 276 346 260 333 316 292 274 237 206 228 52 274 230 241 188 215 225 210 191 204
356 354 353 349 341 330 317 294 260 240 241 262 278 266 257 9 152 162 182 137 174 190 299 34 348 270 270 350 266 237 236 276 332 149 153 137 268 277 240 195 223 214 224 201 201
354 351 349 346 341 329 318 301 233 207 210 195 220 219 264 176 200 201 173 173 151 126 100 160 221 230 130 227 274 213 259 226 218 163 123 177 269 305 91 207 234 218 215 211 206
351 347 345 344 339 330 322 359 150 143 204 196 264 315 201 234 126 149 168 153 172 142 158 201 218 221 200 205 227 228 227 266 242 216 202 189 251 257 272 224 231 230 225 207 203
349 345 342 342 338 331 307 182 200 175 210 212 203 227 149 82 121 185 168 171 198 212 205 198 199 218 211 215 240 272 288 283 285 177 167 228 247 263 251 246 245 232 220 219 211
348 344 339 339 333 321 284 28 55 264 294 243 243 244 120 191 164 172 172 185 191 212 217 177 237 244 253 263 264 274 266 260 283 260 179 269 263 270 270 253 244 241 230 220 207
347 344 338 336 325 315 70 59 333 286 264 237 18 232 180 180 225 181 183 201 209 226 229 223 221 67 238 249 233 251 246 263 259 271 210 274 272 255 259 249 243 244 184 183 182
345 343 339 332 323 330 96 32 291 295 279 178 175 122 142 241 231 71 201 230 228 239 231 250 249 248 241 240 227 248 239 264 258 250 241 116 288 252 277 276 218 208 183 159 121
341 339 335 329 306 313 30 321 302 225 326 89 133 70 85 220 129 142 24 107 250 214 236 237 211 223 237 237 229 264 93 310 308 272 318 240 268 265 208 284 277 194 178 160 147
336 333 336 81 241 30 325 307 239 234 247 141 120 168 185 199 190 127 199 281 14 273 259 255 152 240 228 78 48 120 131 197 217 193 261 221 205 257 223 235 275 107 108 98 80
332 323 321 305 347 333 316 244 264 217 268 135 115 170 243 189 207 185 180 187 204 192 221 234 238 196 184 211 101 182 154 294 276 174 236 205 207 242 302 140 132 136 128 118 116
328 314 186 10 349 335 276 242 243 282 286 131 133 263 237 303 206 189 244 234 215 254 300 253 305 181 174 213 180 179 180 178 230 210 274 65 232 250 241 86 94 78 133 122 114
325 310 45 14 345 314 270 216 273 16 8 354 316 250 250 212 205 195 217 249 260 198 209 261 241 33 157 145 158 180 195 241 297 286 278 239 273 300 70 101 100 116 110 126 123
322 297 39 337 334 275 260 299 358 31 357 344 314 311 306 307 215 206 218 25 237 29 330 260 293 233 103 73 291 188 314 94 224 253 222 262 257 267 30 9 20 13 303 147 111
240 296 341 336 285 239 255 357 9 13 28 348 338 317 312 313 310 305 291 332 357 339 341 352 254 253 120 197 170 169 236 218 254 221 236 263 254 2 29 22 9 354 349 16 78
301 61 347 327 262 196 28 348 343 4 18 1 10 357 4 348 327 314 305 19 6 5 10 338 287 273 244 256 208 216 224 216 229 241 233 238 234 40 38 25 15 4 344 349 58
360 312 20 340 36 21 8 338 324 21 30 7 341 35 22 334 319 332 346 10 25 14 0 348 303 275 292 240 246 257 332 356 336 288 254 259 241 37 36 29 15 16 11 26 40
332 17 1 43 80 8 3 318 352 1 94 2 261 169 339 315 265 304 312 323 331 306 278 346 297 306 297 6 338 308 1 359 338 267 302 265 314 6 9 17 16 13 16 23 32
8 63 25 346 7 342 321 313 356 353 10 308 114 351 14 315 312 279 328 319 308 297 241 169 267 311 301 296 300 22 17 41 58 356 44 14 64 3 356 14 16 15 18 21 20
43 4 346 307 328 340 315 46 356 355 331 316 328 338 325 302 295 322 317 312 280 306 350 321 285 323 290 281 263 90 35 50 52 16 22 68 73 358 349 23 20 20 22 20 13
355 357 277 312 355 340 41 0 331 335 307 332 331 311 304 310 328 301 286 275 262 275 283 278 257 341 269 302 321 85 20 76 80 37 7 41 349 338 343 17 25 16 16 18 8